Location: Laas
(43.4693°N, 0.3073°E)
Time: 15:51:56
(UTC+00:00)

CZ-4 R/B - Pass Details

Date: 25 October 2020
Orbit: 531 x 599 km, 97.7° (Epoch: 23 November)

Event Time Altitude Azimuth Distance (km) Brightness Sun altitude
Rises 18:56:34 0° 182° (S) 2,716 4.9 -21.9°
Reaches altitude 10° 18:58:47 10° 189° (S) 1,816 4.0 -22.3°
Maximum altitude 19:02:31 42° 261° (W) 783 2.5 -23.0°
Drops below altitude 10° 19:06:13 10° 333° (NNW) 1,803 4.3 -23.6°
Sets 19:08:25 0° 341° (NNW) 2,694 5.2 -24.0°
